Regional Weather Roundup
Issued by NWS Grand Forks, ND

Home | Current Version | Previous Version | Text Only | Print | Product List | Glossary Off
Versions: 1 2 3 4 5 6 7 8 9 10 11 12 13 14 15 16 17 18 19 20 21 22 23 24 25 26 27 28 29 30 31 32 33 34 35 36 37 38 39 40 41 42 43 44 45 46 47 48 49 50

000
ASUS43 KFGF 130810
RWRFGF
PRAIRIE TO PINES  WEATHER ROUNDUP
NATIONAL WEATHER SERVICE EASTERN NORTH DAKOTA/GRAND FORKS ND
300 AM CDT SUN JUL 13 2014

 **SATELLITE DATA USED TO AUGMENT SKY COVER AT AUTOMATED STATIONS**
 *****  WEATHER ACROSS EASTERN NORTH DAKOTA  *****

CITY           SKY/WX    TMP DP  RH WIND       PRES   REMARKS
GRAND FORKS    CLEAR     54  52  93 SW7       29.94F
GRAND FRKS AFB NOT AVBL
GRAND FRKS NWS   N/A     52 N/A N/A W6          N/A
DEVILS LAKE    CLEAR     55  46  71 W9        29.97F
FARGO          CLEAR     56  53  90 W6        29.97F
WAHPETON ARPT  SUNNY     54  50  87 NW5       29.99S
$$

 ***** WEATHER ACROSS CENTRAL AND WESTERN NORTH DAKOTA  *****

CITY           SKY/WX    TMP DP  RH WIND       PRES   REMARKS
BISMARCK       CLEAR     60  55  83 W7        30.07S
MINOT          CLEAR     57  45  64 W14       30.05S
JAMESTOWN      CLEAR     58  53  84 W5        30.00F
MINOT AFB      NOT AVBL
GARRISON         N/A     54  50  86 NW10      30.06F
WILLISTON      CLEAR     57  52  83 NE6       30.12F
DICKINSON      CLEAR     54  48  80 W8        30.11F
HETTINGER      CLEAR     56  51  84 NW5       30.15F
$$

 *****  OTHER AIRPORT OBSERVATIONS IN OUR AREA  *****

CITY           SKY/WX    TMP DP  RH WIND       PRES   REMARKS
WALHALLA         N/A     54  54 100 NW7         N/A
GRAFTON AIRPOR FAIR      52  52 100 SW7       29.92F
VALLEY CITY AR CLOUDY    55  55 100 W8        29.99F
CANDO          FAIR      52  48  87 W8        29.99F
CAVALIER APRT  FAIR      54  52  94 W7        29.92F
GWINNER        SUNNY     57  57 100 W7        30.01F
ROLLA          PTSUNNY   54  45  71 NW12      30.00F
 ***** THE ABOVE OBSERVATIONS ARE NON NWS ARE NOT QUALITY
       CONTROLLED AND MAY MIS-REPORT RAIN FOR SNOW...
$$

  *****  WEATHER ACROSS NORTHERN MINNESOTA  *****

CITY           SKY/WX    TMP DP  RH WIND       PRES   REMARKS
FLAG ISLAND    CLEAR     54  46  76 W13       29.84F
WARROAD        PTCLDY    52  48  87 SW9       29.89F
ROSEAU         PTCLDY    55  50  82 W6        29.90S
HALLOCK        PTCLDY    57  55  94 SW8       29.90F
THF RVR FALLS  CLOUDY    55  54  94 W8        29.94S VSB 1/2
BAUDETTE       CLEAR     50  47  89 SW3       29.89F
WASKISH        CLEAR     59  52  77 W7        29.90F
CROOKSTON      CLEAR     52  52 100 W6        29.95F FOG
$$
  *****  WEATHER ACROSS CENTRAL AND WEST MINNESOTA  *****

CITY           SKY/WX    TMP DP  RH WIND       PRES   REMARKS
FOSSTON        FOG       48  48 100 CALM      29.95S VSB<1/4
BEMIDJI        CLEAR     52  51  97 W6        29.93S
PARK RAPIDS    CLEAR     51  51 100 W6        29.95S
ELBOW LAKE     FAIR      57  55  94 NW7       29.97F
WADENA         PTCLDY    55  54  94 NW3       29.96S
DETROIT LAKES  CLEAR     57  55  94 NW6       29.99S
MOORHEAD       CLEAR     57  57 100 CALM      29.98S
FERGUS FALLS   CLEAR     57  54  88 N7        29.98S
MORRIS MN      CLEAR     57  55  94 NW7       29.96S
STAPLES        PTCLDY    55  52  88 NW5       29.96R
$$
  *****  WEATHER ELSEWHERE ACROSS MINNESOTA  *****

CITY           SKY/WX    TMP DP  RH WIND       PRES   REMARKS
DULUTH         PTCLDY    59  52  77 NW13G21   29.87S
INTRNTL FALLS  CLEAR     48  47  96 SW5       29.86F
ELY            PTCLDY    52  48  87 NW5       29.85S
CLOQUET        PTCLDY    55  52  88 NW10      29.89S
WHEATON        PTCLDY    57  54  88 W3        30.00S
BRAINERD       PTCLDY    64  53  67 NW9       29.94S
HIBBING        CLEAR     53  50  89 NW6       29.89S
ALEXANDRIA     CLEAR     62  54  74 NW10      29.97S
SAINT CLOUD    CLEAR     63  58  83 N6        29.91S
MINNEAPOLIS    PTCLDY    67  65  93 SW7       29.89F
$$

  *****  WEATHER ACROSS SOUTH DAKOTA  *****

CITY           SKY/WX    TMP DP  RH WIND       PRES   REMARKS
SIOUX FALLS    CLEAR     67  64  90 W3        30.01S
BROOKINGS      NOT AVBL
WATERTOWN      CLEAR     65  62  90 W7        30.00F
HURON          CLEAR     65  62  90 W8        30.01F
SISSETON         N/A     58  55  90 NW6       29.97F
ABERDEEN       CLEAR     59  56  89 N7        30.02F
MITCHELL       CLEAR     66  61  84 NW6       30.02F
PIERRE         CLEAR     63  62  97 CALM      30.06F
MOBRIDGE       CLEAR     61  58  90 N8        30.05S
RAPID CITY     CLEAR     64  58  80 N8        30.19S
$$

  *****  SOME WEATHER IN NEARBY STATES *****

CITY           SKY/WX    TMP DP  RH WIND       PRES   REMARKS
GLASGOW MT     NOT AVBL
GREAT FALLS MT NOT AVBL
CHEYENNE WY    LGT RAIN  61  58  90 W5        30.38F
SCOTTSBLUFF NE PTCLDY    64  62  93 NW6       30.26S
OMAHA NE       PTCLDY    70  66  87 CALM      30.04R
DES MOINES IA  MOCLDY    68  65  90 S6        29.99F
DAVENPORT IA     N/A     65  64  97 W6        29.95S
CHICAGO IL     MOCLDY    71  66  84 W10       29.85S
EAU CLAIRE WI  CLEAR     64  63  96 SW8       29.86F
LA CROSSE WI   CLEAR     64  63  96 CALM      29.91R
$$

  *****  SOME NATIONAL WEATHER *****

CITY           SKY/WX    TMP DP  RH WIND       PRES   REMARKS
LA GUARDIA NY  MOCLDY    72  65  78 S6        30.09F
RALEIGH NC     PTCLDY    73  69  87 SW8       30.14S
ATLANTA GA     PTCLDY    74  68  81 CALM      30.13S
NEW ORLEANS LA CLEAR     78  74  87 W5        30.04R
OKLAHOMA CITY  CLEAR     71  60  68 S8        30.06S
ALBUQUERQUE NM MOCLDY    75  58  55 CALM      30.26S
SALT LAKE CITY NOT AVBL
LOS ANGELES CA MOCLDY    68  62  81 W7        29.94S
BOISE ID       NOT AVBL
SEATTLE WA     CLEAR     69  53  56 N3        30.10S
$$

*** WEATHER ACROSS MANITOBA...SASKATCHEWAN AND ONTARIO ***
                ***ONTARIO***

CITY           SKY/WX    TMP DP  RH WIND       PRES   REMARKS
GERALDTON      MOCLDY    57  52  82 W12G18    29.66F
THUNDER BAY    MOCLDY    55  52  88 W9        29.75S
SIOUX LOOKOUT  MOCLDY    50  48  93 W6        29.75S
TORONTO        LGT RAIN  70  63  78 SE7       29.83F
BIG TROUT LK   LGT RAIN  52  48  87 W7        29.51F
PICKLE LAKE    NOT AVBL
DRYDEN         PTCLDY    50  48  93 SW10      29.78R
KENORA         PTCLDY    52  46  82 W10       29.82F
$$
                *** MANITOBA***

CITY           SKY/WX    TMP DP  RH WIND       PRES   REMARKS
BRANDON        CLEAR     50  46  87 NW10      29.98R
DAUPHIN        CLEAR     52  45  76 W10       29.94S
ISLAND LAKE    LGT RAIN  48  45  87 N13G18    29.60S
PILOT MOUND      N/A     50  45  81 W7          N/A
THE PAS        MOCLDY    55  46  71 NW18      29.92
THOMPSON       LGT RAIN  46  46 100 NW14G21   29.72
WINNIPEG       PTCLDY    54  52  94 SW7       29.89F
LYNN LAKE      CLOUDY    48  45  87 N16G28    29.93S
CHURCHILL      CLOUDY    39  37  93 NE25      29.68R
GILLAM         LGT RAIN  43  43 100 N12       29.60S
$$
                ***SASKATCHEWAN***

CITY           SKY/WX    TMP DP  RH WIND       PRES   REMARKS
ESTEVAN        CLEAR     50  46  87 W6        30.11S
KINDERSLEY     PTCLDY    55  50  82 W2        30.20S
LLOYDMINSTER   CLEAR     48  46  93 NW3       30.20S
PRINCE ALBERT  CLEAR     48  43  81 N6        30.12R
REGINA         CLEAR     46  43  87 NW6       30.13F
YORKTON        CLEAR     52  45  76 W14       30.03F
N. BATTLEFORD  CLEAR     48  45  87 NW3       30.20R FOG
LA RONGE       PTCLDY    54  43  66 N8        30.12R
SASKATOON      CLEAR     45  41  87 NW8       30.17S
SWIFT CURRENT  CLEAR     50  46  87 SW7       30.21R
$$
NOTE: THESE ARE AUTOMATED STATIONS WITH LIMITED QUALITY CONTROL
      "FAIR" INDICATES FEW OR NO CLOUDS BELOW 12,000 FEET WITH NO
      SIGNIFICANT WEATHER AND/OR OBSTRUCTIONS TO VISIBILITY.
      SKY/WX - SKY CONDITION AND SIGNIFICANT WEATHER.
      TMP - AIR TEMPERATURE.    DP   - DEWPOINT TEMPERATURE.
      RH  - RELATIVE HUMIDITY.  PRES - PRESSURE.
      HX  - HEAT INDEX.         WCI  - WIND CHILL INDEX.
$


USA.gov is the U.S. government's official web portal to all federal, state and local government web resources and services.